Location: Molveno
(46.1500°N, 10.9667°E)
Time: 16:40:24
(UTC+00:00)

Cosmos 1455 - Pass Details

Date: 05 July 2020
Orbit: 500 x 521 km, 82.5° (Epoch: 10 August)

Event Time Altitude Azimuth Distance (km) Brightness Sun altitude
Rises 20:06:15 0° 350° (N) 2,644 6.8 -8.3°
Reaches altitude 10° 20:08:23 10° 350° (N) 1,756 5.8 -8.5°
Maximum altitude 20:12:15 84° 263° (W) 529 2.3 -9.0°
Drops below altitude 10° 20:16:06 10° 175° (S) 1,750 4.4 -9.5°
Enters shadow 20:16:33 - 175° (S) 1,942 4.6 -9.5°
